Home   Weather   Aalborg   Past weeks

Flag for Denmark Past Weather in Aalborg, Denmark — Yesterday and Last 2 Weeks

Now
45 °F

Passing clouds.


Feels Like: 39 °F
Forecast: 39 / 44 °F
Wind: 12 mph from West

Location: Aalborg Airport

Current Time: Jan 20, 2017 at 9:06:58 am

Latest Report: Jan 20, 2017 at 8:20 am


Visibility: N/A

Pressure: 30.42 "Hg

Humidity: 93%

Dew Point: 43 °F

Location of AalborgLocation

Past Weather in Aalborg — Graph

°F

Aalborg Temperature Yesterday

Maximum temperature yesterday: 46 °F (at 2:20 pm)
Minimum temperature yesterday: 39 °F (at 3:50 am)
Average temperature yesterday: 43 °F

High & Low Weather Summary for the Past Weeks

 TemperatureHumidityPressure
High46 °F (Jan 19, 2:20 pm)100% (Jan 7, 6:20 am)30.74 "Hg (Jan 7, 6:20 am)
Low12 °F (Jan 6, 1:20 am)60% (Jan 15, 2:50 pm)28.88 "Hg (Jan 11, 1:20 pm)
Average35 °F90%30.03 "Hg
* Reported Jan 5 7:20 am — Jan 20 7:50 am, Aalborg, Weather by CustomWeather, © 2017

Note: Actual official high and low records may vary slightly from our data, if they occured in-between our weather recording intervals... More about our weather records

Advertising

Aalborg Weather History for the Previous 24 Hours

Scroll right to see more
 ConditionsComfort  
Time TempWeatherWind HumidityBarometerVisibility
7:50 am
Fri, Jan 20
43 °FPassing clouds.12 mph93%30.42 "HgN/A
7:20 am41 °FClear.12 mph100%30.42 "Hg10 mi
6:50 am41 °FClear.9 mph100%30.42 "Hg10 mi
6:20 am39 °FClear.10 mph100%30.42 "Hg10 mi
5:50 am39 °FClear.10 mph100%30.42 "Hg10 mi
5:20 am39 °FClear.10 mph100%30.42 "Hg10 mi
4:50 am39 °FClear.8 mph100%30.42 "Hg10 mi
4:20 am41 °FClear.10 mph93%30.42 "Hg10 mi
3:50 am39 °FPassing clouds.10 mph100%30.45 "HgN/A
3:20 am39 °FPassing clouds.9 mph100%30.45 "Hg5 mi
2:50 am39 °FPassing clouds.10 mph100%30.45 "Hg4 mi
2:20 am39 °FClear.14 mph100%30.45 "Hg5 mi
1:50 am39 °FPassing clouds.9 mph100%30.45 "Hg4 mi
1:20 am39 °FFog.10 mph100%30.45 "Hg3 mi
12:50 am41 °FPassing clouds.9 mph93%30.45 "Hg4 mi
12:20 am41 °FPassing clouds.9 mph93%30.45 "HgN/A
11:50 pm
Thu, Jan 19
43 °FPassing clouds.10 mph100%30.45 "HgN/A
11:20 pm45 °FPassing clouds.15 mph93%30.45 "HgN/A
10:50 pm45 °FPassing clouds.15 mph93%30.45 "HgN/A
10:20 pm45 °FPassing clouds.15 mph93%30.45 "HgN/A
9:50 pm45 °FPassing clouds.14 mph93%30.45 "HgN/A
9:20 pm45 °FPassing clouds.16 mph93%30.45 "HgN/A
8:50 pm45 °FPassing clouds.16 mph100%30.45 "HgN/A
8:20 pm45 °FPassing clouds.12 mph100%30.45 "Hg5 mi
7:50 pm43 °FPassing clouds.10 mph93%30.45 "Hg5 mi
7:20 pm43 °FPassing clouds.12 mph100%30.45 "Hg5 mi
6:50 pm43 °FPassing clouds.10 mph100%30.45 "Hg5 mi
6:20 pm43 °FPassing clouds.10 mph93%30.45 "HgN/A
5:50 pm43 °FPassing clouds.10 mph93%30.45 "HgN/A
5:20 pm43 °FPassing clouds.12 mph93%30.45 "HgN/A
4:50 pm45 °FClear.12 mph93%30.45 "Hg10 mi
4:20 pm45 °FClear.13 mph87%30.45 "Hg10 mi
3:50 pm45 °FSunny.13 mph93%30.45 "Hg10 mi
3:20 pm45 °FSunny.16 mph93%30.45 "Hg10 mi
2:50 pm45 °FSunny.14 mph93%30.45 "Hg10 mi
2:20 pm46 °FSunny.16 mph87%30.45 "Hg10 mi
1:50 pm45 °FSunny.16 mph93%30.45 "Hg10 mi
1:20 pm45 °FScattered clouds.17 mph93%30.45 "HgN/A
12:50 pm45 °FScattered clouds.17 mph93%30.45 "HgN/A
12:20 pm45 °FScattered clouds.17 mph93%30.45 "HgN/A
11:50 am45 °FPartly sunny.16 mph93%30.45 "HgN/A
11:20 am43 °FPartly sunny.16 mph100%30.48 "Hg6 mi
10:50 am43 °FPartly sunny.16 mph100%30.48 "Hg6 mi
10:20 am43 °FPartly sunny.17 mph93%30.48 "Hg6 mi
9:56 am41 °FPartly sunny.12 mph100%30.48 "Hg6 mi
9:20 am41 °FScattered clouds.14 mph93%30.48 "Hg4 mi
Weather by CustomWeather, © 2017

See weather overviewHow to use our weather pages